FW8127 Weather Reports


time (UTC)temp
C
wind
direction
speed
KPH
gust
KPH
rain 1hr
cm
rain 24hr
cm
rain mn
cm
humidity
%
barometer
mb
20260506222049 21 249 8.0 16.1 0.00 0.00 0.00 75 1008.6
20260506221556 21 316 4.8 19.3 0.00 0.00 0.00 75 1008.5
20260506221049 21 234 3.2 19.3 0.00 0.00 0.00 74 1008.5
20260506220548 21 231 6.4 19.3 0.00 0.00 0.00 73 1008.4
20260506220057 21 250 6.4 19.3 0.00 0.00 0.00 73 1008.5
20260506215549 21 244 6.4 20.9 0.00 0.00 0.00 74 1008.3
20260506215049 21 239 8.0 24.1 0.00 0.00 0.00 74 1008.6
20260506214609 21 298 8.0 24.1 0.00 0.00 0.00 74 1008.4
20260506214047 21 253 6.4 16.1 0.00 0.00 0.00 75 1008.3
20260506213548 20 291 4.8 17.7 0.00 0.00 0.00 75 1008.3
20260506213057 20 213 8.0 20.9 0.00 0.00 0.00 75 1008.4
20260506212549 20 180 6.4 20.9 0.00 0.00 0.00 76 1008.4
20260506212052 21 223 4.8 16.1 0.00 0.00 0.00 76 1008.3
20260506211556 20 255 8.0 16.1 0.00 0.00 0.00 76 1008.3
20260506211049 20 240 6.4 17.7 0.00 0.00 0.00 76 1008.5
20260506210550 21 274 6.4 17.7 0.00 0.00 0.00 76 1008.4
20260506210058 21 254 8.0 16.1 0.00 0.00 0.00 76 1008.2
20260506205549 21 298 6.4 14.5 0.00 0.00 0.00 76 1008.3
20260506205047 21 270 8.0 20.9 0.00 0.00 0.00 75 1008.2
20260506204615 21 292 6.4 20.9 0.00 0.00 0.00 75 1008.1
20260506204048 20 242 8.0 19.3 0.00 0.00 0.00 75 1008.1
20260506203545 20 237 6.4 24.1 0.00 0.00 0.00 75 1008.2
20260506203056 20 246 8.0 24.1 0.00 0.00 0.00 75 1008.2
20260506202548 20 290 3.2 25.7 0.00 0.00 0.00 76 1008.1
20260506202048 20 231 8.0 25.7 0.00 0.00 0.00 76 1008.1
20260506201556 20 257 11.3 25.7 0.00 0.00 0.00 76 1008.0
20260506201048 20 209 1.6 19.3 0.00 0.00 0.00 78 1008.1
20260506200548 20 263 8.0 19.3 0.00 0.00 0.00 78 1008.0
20260506200058 19 225 8.0 19.3 0.00 0.00 0.00 78 1008.2
20260506195545 19 180 6.4 25.7 0.00 0.00 0.00 78 1008.1
20260506195050 19 245 11.3 25.7 0.00 0.00 0.00 78 1008.5
20260506194607 19 233 8.0 24.1 0.00 0.00 0.00 78 1008.6
20260506194050 19 230 8.0 24.1 0.00 0.00 0.00 78 1008.5
20260506193548 19 295 9.7 22.5 0.00 0.00 0.00 78 1008.6
20260506193112 19 215 6.4 25.7 0.00 0.00 0.00 78 1008.7
20260506192550 19 297 9.7 25.7 0.00 0.00 0.00 78 1008.6
20260506192049 19 278 12.9 25.7 0.00 0.00 0.00 78 1008.9
20260506191604 19 279 8.0 19.3 0.00 0.00 0.00 78 1008.9
20260506191047 19 225 11.3 20.9 0.00 0.00 0.00 78 1008.8
20260506190547 18 230 9.7 22.5 0.00 0.00 0.00 79 1008.9
20260506190111 18 202 9.7 33.8 0.00 0.00 0.00 78 1008.9
20260506185549 18 211 8.0 33.8 0.00 0.00 0.00 79 1009.0
20260506185049 18 271 9.7 32.2 0.00 0.00 0.00 78 1008.9
20260506184556 18 210 6.4 27.4 0.00 0.00 0.00 79 1009.1
20260506184048 18 253 9.7 27.4 0.00 0.00 0.00 79 1009.0
20260506183549 18 247 11.3 27.4 0.00 0.00 0.00 79 1009.0
20260506183100 18 267 9.7 24.1 0.00 0.00 0.00 79 1009.2
20260506182547 18 197 12.9 25.7 0.00 0.00 0.00 80 1009.2
20260506182048 18 241 6.4 25.7 0.00 0.00 0.00 80 1009.1
20260506181606 18 300 8.0 20.9 0.00 0.00 0.00 80 1009.2
20260506181049 18 231 9.7 33.8 0.00 0.00 0.00 80 1009.2
20260506180549 18 192 6.4 33.8 0.00 0.00 0.00 80 1009.3
20260506180052 18 178 11.3 33.8 0.00 0.00 0.00 80 1009.3
20260506175549 18 229 4.8 27.4 0.00 0.00 0.00 81 1009.3
20260506175051 18 214 8.0 27.4 0.00 0.00 0.00 81 1009.2
20260506174556 18 211 6.4 14.5 0.00 0.00 0.00 82 1009.2
20260506174050 18 250 3.2 16.1 0.00 0.00 0.00 82 1009.3
20260506173548 18 302 3.2 16.1 0.00 0.00 0.00 82 1009.4
20260506173100 18 275 4.8 14.5 0.00 0.00 0.00 82 1009.4
20260506172545 18 272 6.4 14.5 0.00 0.00 0.00 82 1009.6
20260506172048 18 220 4.8 20.9 0.00 0.00 0.00 82 1009.6
20260506171557 18 224 4.8 22.5 0.00 0.00 0.00 82 1009.5
20260506171047 18 174 9.7 22.5 0.00 0.00 0.00 82 1009.6
20260506170549 18 227 9.7 25.7 0.00 0.00 0.00 82 1009.6
20260506170052 18 236 6.4 25.7 0.00 0.00 0.00 82 1009.8
20260506165548 18 217 9.7 25.7 0.00 0.00 0.00 82 1009.7
20260506165046 18 221 4.8 22.5 0.00 0.00 0.00 83 1009.9
20260506164558 18 123 4.8 22.5 0.00 0.00 0.00 83 1009.7
20260506164048 18 233 8.0 20.9 0.00 0.00 0.00 82 1009.8
20260506163548 18 229 6.4 20.9 0.00 0.00 0.00 82 1009.9
20260506163052 18 240 8.0 20.9 0.00 0.00 0.00 82 1010.1
20260506162546 18 235 8.0 20.9 0.00 0.00 0.00 82 1009.8
20260506162047 18 225 4.8 19.3 0.00 0.00 0.00 82 1009.8
20260506161553 18 242 8.0 22.5 0.00 0.00 0.00 81 1009.9
20260506161050 18 238 6.4 22.5 0.00 0.00 0.00 81 1010.1
20260506160545 18 138 6.4 22.5 0.00 0.00 0.00 80 1010.2
20260506160053 18 246 8.0 19.3 0.00 0.00 0.00 79 1010.5
20260506155546 18 205 6.4 19.3 0.00 0.00 0.00 78 1010.6
20260506155048 18 245 4.8 19.3 0.00 0.00 0.00 77 1010.7
20260506154612 18 215 8.0 25.7 0.00 0.00 0.00 76 1010.8
20260506154048 19 173 4.8 25.7 0.00 0.00 0.00 74 1010.7
20260506153549 19 257 9.7 25.7 0.00 0.00 0.00 73 1010.9
20260506153055 19 201 6.4 25.7 0.00 0.00 0.00 72 1010.7
20260506152549 19 207 9.7 24.1 0.00 0.00 0.00 71 1010.8
20260506152049 19 238 8.0 20.9 0.00 0.00 0.00 71 1010.7
20260506151555 19 223 6.4 20.9 0.00 0.00 0.00 71 1010.7
20260506151044 19 212 6.4 20.9 0.00 0.00 0.00 71 1010.6
20260506150548 20 222 8.0 16.1 0.00 0.00 0.00 70 1010.6
20260506150056 20 230 6.4 25.7 0.00 0.00 0.00 69 1010.7
20260506145547 20 208 9.7 25.7 0.00 0.00 0.00 69 1010.7
20260506145050 20 196 8.0 24.1 0.00 0.00 0.00 67 1010.6
20260506144602 20 275 8.0 24.1 0.00 0.00 0.00 66 1010.6
20260506144048 20 276 8.0 22.5 0.00 0.00 0.00 66 1010.7
20260506143548 20 278 8.0 25.7 0.00 0.00 0.00 65 1010.6
20260506143055 20 0 8.0 29.0 0.00 0.00 0.00 66 1010.7
20260506142551 20 258 11.3 29.0 0.00 0.00 0.00 65 1010.7
20260506142050 20 308 9.7 20.9 0.00 0.00 0.00 65 1010.7
20260506141550 20 242 6.4 24.1 0.00 0.00 0.00 65 1010.8
20260506141052 20 238 6.4 24.1 0.00 0.00 0.00 64 1010.7
20260506140550 20 213 9.7 24.1 0.00 0.00 0.00 64 1010.8
20260506140100 20 211 6.4 25.7 0.00 0.00 0.00 64 1010.7
20260506135547 20 286 8.0 25.7 0.00 0.00 0.00 64 1010.6
20260506135049 21 311 9.7 24.1 0.00 0.00 0.00 63 1010.5
20260506134558 21 222 9.7 24.1 0.00 0.00 0.00 63 1010.6
20260506134050 20 230 8.0 24.1 0.00 0.00 0.00 65 1010.3
20260506133551 20 286 9.7 22.5 0.00 0.00 0.00 65 1010.4
20260506133057 20 207 4.8 22.5 0.00 0.00 0.00 66 1010.4
20260506132550 20 219 9.7 22.5 0.00 0.00 0.00 66 1010.5
20260506132050 20 269 9.7 22.5 0.00 0.00 0.00 67 1010.6
20260506131552 20 179 6.4 20.9 0.00 0.00 0.00 67 1010.6
20260506131050 19 290 4.8 20.9 0.00 0.00 0.00 67 1010.6
20260506130550 19 223 6.4 17.7 0.00 0.00 0.00 67 1010.6
20260506130059 19 192 8.0 20.9 0.00 0.00 0.00 68 1010.7
20260506125550 19 205 4.8 24.1 0.00 0.00 0.00 68 1010.9
20260506125051 19 287 11.3 24.1 0.00 0.00 0.00 68 1010.9
20260506124557 19 292 4.8 25.7 0.00 0.00 0.00 68 1010.9
20260506124048 19 205 8.0 25.7 0.00 0.00 0.00 68 1011.0
20260506123552 20 284 8.0 22.5 0.00 0.00 0.00 68 1010.9
20260506123054 19 227 9.7 22.5 0.00 0.00 0.00 69 1010.9
20260506122550 19 229 6.4 27.4 0.00 0.00 0.00 70 1010.8
20260506122049 19 213 11.3 27.4 0.00 0.00 0.00 70 1010.8
20260506121553 19 179 11.3 27.4 0.00 0.00 0.00 70 1010.8
20260506121050 19 301 8.0 27.4 0.00 0.00 0.00 71 1010.7
20260506120549 19 186 6.4 19.3 0.00 0.00 0.00 72 1010.8
20260506120052 19 232 8.0 19.3 0.00 0.00 0.00 73 1010.7
20260506115550 19 227 6.4 16.1 0.00 0.00 0.00 73 1010.6
20260506115048 18 211 6.4 16.1 0.00 0.00 0.00 74 1010.8
20260506114558 18 188 4.8 16.1 0.00 0.00 0.00 75 1010.6
20260506114048 18 220 4.8 16.1 0.00 0.00 0.00 75 1010.6
20260506113550 18 219 6.4 17.7 0.00 0.00 0.00 75 1010.5
20260506113053 18 207 4.8 19.3 0.00 0.00 0.00 75 1010.6
20260506112549 18 169 8.0 19.3 0.00 0.00 0.00 75 1010.6
20260506112049 18 229 4.8 17.7 0.00 0.00 0.00 76 1010.6
20260506111602 18 181 4.8 17.7 0.00 0.00 0.00 76 1010.5
20260506111050 18 221 4.8 17.7 0.00 0.00 0.00 76 1010.6
20260506110550 18 215 3.2 16.1 0.00 0.00 0.00 76 1010.4
20260506110057 18 186 6.4 16.1 0.00 0.00 0.00 76 1010.3
20260506105552 18 217 4.8 16.1 0.00 0.00 0.00 77 1010.3
20260506105050 18 196 3.2 14.5 0.00 0.00 0.00 78 1010.4
20260506104558 18 187 6.4 14.5 0.00 0.00 0.00 78 1010.6
20260506104050 17 224 3.2 12.9 0.00 0.00 0.00 79 1010.6
20260506103550 17 171 4.8 12.9 0.00 0.00 0.00 79 1010.5
20260506103059 17 157 3.2 12.9 0.00 0.00 0.00 80 1010.6
20260506102550 17 198 3.2 12.9 0.00 0.00 0.00 81 1010.7
20260506102050 17 193 3.2 14.5 0.00 0.00 0.00 81 1010.5
20260506101553 17 211 4.8 14.5 0.00 0.00 0.00 81 1010.7
20260506101050 17 158 3.2 14.5 0.00 0.00 0.00 81 1010.7
20260506100551 17 210 0.0 11.3 0.00 0.00 0.00 81 1010.6
20260506100100 17 171 3.2 12.9 0.00 0.00 0.00 81 1010.6
20260506095550 17 185 1.6 16.1 0.00 0.00 0.00 81 1010.6
20260506095051 17 173 4.8 16.1 0.00 0.00 0.00 80 1010.5
20260506094555 17 190 0.0 14.5 0.00 0.00 0.00 80 1010.6
20260506094049 17 230 3.2 14.5 0.00 0.00 0.00 80 1010.8
20260506093547 17 194 1.6 14.5 0.00 0.00 0.00 80 1010.7
20260506093054 17 189 3.2 14.5 0.00 0.00 0.00 80 1010.5
20260506092550 17 215 0.0 11.3 0.00 0.00 0.00 79 1010.6
20260506092049 17 176 3.2 11.3 0.00 0.00 0.00 79 1010.6
20260506091601 17 211 3.2 11.3 0.00 0.00 0.00 79 1010.6
20260506091051 17 164 3.2 9.7 0.00 0.00 0.00 79 1010.4
20260506090551 17 180 1.6 9.7 0.00 0.00 0.00 79 1010.6
20260506090054 17 180 0.0 8.0 0.00 0.00 0.00 79 1010.7
20260506085550 17 194 1.6 9.7 0.00 0.00 0.00 79 1010.7
20260506085047 17 204 3.2 11.3 0.00 0.00 0.00 79 1010.6
20260506084556 17 159 1.6 11.3 0.00 0.00 0.00 78 1010.6
20260506084051 18 140 3.2 11.3 0.00 0.00 0.00 78 1010.7
20260506083550 18 194 3.2 11.3 0.00 0.00 0.00 78 1010.6
20260506083058 18 164 3.2 14.5 0.00 0.00 0.00 78 1010.6
20260506082550 18 177 1.6 14.5 0.00 0.00 0.00 78 1010.6
20260506082049 18 0 1.6 11.3 0.00 0.00 0.00 78 1010.7
20260506081559 18 200 3.2 11.3 0.00 0.00 0.00 78 1010.8
20260506081049 18 161 3.2 9.7 0.00 0.00 0.00 78 1010.9
20260506080550 18 188 3.2 9.7 0.00 0.00 0.00 77 1010.9
20260506073058 18 170 1.6 11.3 0.00 0.00 0.00 76 1010.9
20260506072550 18 139 3.2 11.3 0.00 0.00 0.00 75 1010.9
20260506072051 18 0 3.2 11.3 0.00 0.00 0.00 75 1010.9
20260506071551 18 191 1.6 14.5 0.00 0.00 0.00 75 1010.9
20260506071049 19 0 6.4 14.5 0.00 0.00 0.00 75 1011.0
20260506070550 19 252 1.6 12.9 0.00 0.00 0.00 74 1010.9
20260506062050 20 229 6.4 19.3 0.00 0.00 0.00 72 1011.2
20260506061557 20 182 8.0 17.7 0.00 0.00 0.00 72 1011.2
20260506061053 20 0 4.8 17.7 0.00 0.00 0.00 72 1011.0
20260506060550 20 182 3.2 17.7 0.00 0.00 0.00 72 1011.0
20260506051049 20 178 4.8 24.1 0.00 0.00 0.00 71 1011.3
20260506050547 20 200 4.8 24.1 0.00 0.00 0.00 70 1011.3
20260506045049 20 191 6.4 17.7 0.00 0.00 0.00 70 1011.3
20260506044638 20 157 6.4 20.9 0.00 0.00 0.00 69 1011.3
20260506044049 20 134 6.4 20.9 0.00 0.00 0.00 69 1011.3
20260506043547 20 161 6.4 17.7 0.00 0.00 0.00 69 1011.4
20260506043059 20 236 8.0 20.9 0.00 0.00 0.00 69 1011.3
20260506042550 20 167 3.2 20.9 0.00 0.00 0.00 69 1011.5
20260506042051 20 200 4.8 20.9 0.00 0.00 0.00 69 1011.4
20260506041559 20 205 8.0 19.3 0.00 0.00 0.00 69 1011.4
20260506041049 20 159 6.4 17.7 0.00 0.00 0.00 69 1011.4
20260506040546 20 238 3.2 17.7 0.00 0.00 0.00 68 1011.4
20260506040056 20 190 6.4 16.1 0.00 0.00 0.00 68 1011.4
20260506035550 20 133 4.8 20.9 0.00 0.00 0.00 68 1011.4
20260506035050 20 196 4.8 20.9 0.00 0.00 0.00 68 1011.2
20260506034555 20 182 4.8 14.5 0.00 0.00 0.00 68 1011.4
20260506034052 20 198 4.8 14.5 0.00 0.00 0.00 68 1011.4
20260506033550 20 189 3.2 17.7 0.00 0.00 0.00 68 1011.2
20260506033054 20 186 3.2 17.7 0.00 0.00 0.00 68 1011.2
20260506032547 20 190 4.8 17.7 0.00 0.00 0.00 67 1011.2
20260506032047 20 153 3.2 17.7 0.00 0.00 0.00 67 1011.2
20260506031555 20 209 6.4 17.7 0.00 0.00 0.00 67 1011.2
20260506031051 20 212 4.8 14.5 0.00 0.00 0.00 67 1011.2
20260506030552 20 171 4.8 20.9 0.00 0.00 0.00 66 1011.4
20260506030057 20 193 4.8 20.9 0.00 0.00 0.00 66 1011.3
20260506025551 20 181 6.4 17.7 0.00 0.00 0.00 66 1011.4
20260506025050 20 174 4.8 16.1 0.00 0.00 0.00 66 1011.4
20260506024559 20 163 4.8 16.1 0.00 0.00 0.00 65 1011.3
20260506024050 20 159 6.4 14.5 0.00 0.00 0.00 65 1011.5
20260506023550 20 181 4.8 22.5 0.00 0.00 0.00 65 1011.5
20260506023101 20 192 6.4 22.5 0.00 0.00 0.00 65 1011.5
20260506022549 20 165 4.8 11.3 0.00 0.00 0.00 64 1011.5
20260506022049 20 189 3.2 11.3 0.00 0.00 0.00 64 1011.3
20260506021606 20 171 3.2 16.1 0.00 0.00 0.00 63 1011.4
20260506021050 20 156 4.8 16.1 0.00 0.00 0.00 63 1011.3
20260506020550 20 168 4.8 16.1 0.00 0.00 0.00 62 1011.3
20260506020056 21 173 4.8 14.5 0.00 0.00 0.00 61 1011.2
20260506015550 21 0 4.8 14.5 0.00 0.00 0.00 61 1011.1
20260506015050 21 218 3.2 12.9 0.00 0.00 0.00 60 1011.2
20260506014554 21 185 6.4 16.1 0.00 0.00 0.00 59 1011.2
20260506014049 21 167 3.2 16.1 0.00 0.00 0.00 57 1011.2
20260506013549 22 248 4.8 16.1 0.00 0.00 0.00 56 1011.0
20260506013104 22 128 6.4 16.1 0.00 0.00 0.00 55 1010.9
20260506012550 22 185 4.8 17.7 0.00 0.00 0.00 53 1010.8
20260506012050 22 171 6.4 17.7 0.00 0.00 0.00 52 1010.8
20260506011557 22 212 4.8 16.1 0.00 0.00 0.00 52 1010.7
20260506011051 22 184 4.8 16.1 0.00 0.00 0.00 52 1010.8
20260506010550 22 177 6.4 16.1 0.00 0.00 0.00 51 1010.7
20260506010112 22 178 4.8 16.1 0.00 0.00 0.00 51 1010.5
20260506005547 22 243 6.4 16.1 0.00 0.00 0.00 50 1010.7
20260506005050 22 236 4.8 16.1 0.00 0.00 0.00 50 1010.6
20260506004554 23 165 4.8 16.1 0.00 0.00 0.00 50 1010.6
20260506004048 23 181 4.8 14.5 0.00 0.00 0.00 50 1010.4
20260506003550 23 216 4.8 20.9 0.00 0.00 0.00 50 1010.5
20260506003057 23 238 6.4 20.9 0.00 0.00 0.00 49 1010.6
20260506002549 23 143 6.4 22.5 0.00 0.00 0.00 48 1010.4
20260506002049 23 207 6.4 22.5 0.00 0.00 0.00 48 1010.4
20260506001551 23 168 8.0 17.7 0.00 0.00 0.00 48 1010.1
20260506001049 23 205 6.4 16.1 0.00 0.00 0.00 48 1010.1
20260506000551 23 225 6.4 19.3 0.00 0.00 0.00 47 1010.1
20260506000056 23 191 6.4 19.3 0.00 0.00 0.00 48 1010.0
20260505235549 23 192 3.2 19.3 0.00 0.00 0.00 47 1010.0
20260505235052 23 207 8.0 30.6 0.00 0.00 0.00 46 1010.1
20260505234607 24 190 8.0 32.2 0.00 0.00 0.00 45 1010.0
20260505234048 24 233 11.3 32.2 0.00 0.00 0.00 45 1010.0
20260505233549 24 191 6.4 22.5 0.00 0.00 0.00 45 1010.0
20260505233056 24 194 8.0 20.9 0.00 0.00 0.00 45 1010.0
20260505232550 24 191 6.4 24.1 0.00 0.00 0.00 44 1009.9
20260505232050 25 194 8.0 24.1 0.00 0.00 0.00 43 1010.0
20260505231556 25 164 6.4 24.1 0.00 0.00 0.00 43 1010.0
20260505231047 25 222 6.4 20.9 0.00 0.00 0.00 44 1009.9
20260505230549 25 203 6.4 20.9 0.00 0.00 0.00 44 1009.9
20260505230053 25 254 6.4 25.7 0.00 0.00 0.00 44 1009.7
20260505225547 25 196 8.0 25.7 0.00 0.00 0.00 44 1009.9
20260505225048 25 205 8.0 20.9 0.00 0.00 0.00 43 1009.7
20260505224558 26 154 8.0 24.1 0.00 0.00 0.00 42 1009.8
20260505224049 26 190 9.7 24.1 0.00 0.00 0.00 41 1009.8
20260505223549 26 205 9.7 20.9 0.00 0.00 0.00 40 1009.8
20260505223059 26 168 4.8 30.6 0.00 0.00 0.00 41 1009.9
20260505222548 26 231 9.7 30.6 0.00 0.00 0.00 40 1009.8